Regional Weather Roundup
Issued by NWS

Home | Current Version | Previous Version | Text Only | Print | Product List | Glossary On
Versions: 1 2 3 4 5 6 7 8 9 10 11 12 13 14 15 16 17 18 19 20 21 22 23 24 25 26 27 28 29 30 31 32 33 34 35 36 37 38 39 40 41 42 43 44 45 46 47 48 49 50
000
ASUS43 KFSD 252002
RWRSD

WEATHER ROUNDUP FOR SOUTH DAKOTA
NATIONAL WEATHER SERVICE SIOUX FALLS SD
300 PM CDT THU AUG 25 2016

NOTE: "FAIR" INDICATES FEW OR NO CLOUDS BELOW 12,000 FEET WITH NO
SIGNIFICANT WEATHER AND/OR OBSTRUCTIONS TO VISIBILITY.


SDZ001>005-009-010-012>017-252100-
NORTHWEST AND NORTH CENTRAL SOUTH DAKOTA

CITY           SKY/WX    TMP DP  RH WIND       PRES   REMARKS
FAITH            N/A     64  46  52 NW12G21   30.23R
MOBRIDGE       CLOUDY    63  48  58 NW12      30.17S
$$

SDZ012>016-024>037-041>051-057-063-072>074-252100-
SOUTHWEST AND SOUTH CENTRAL SOUTH DAKOTA

CITY           SKY/WX    TMP DP  RH WIND       PRES   REMARKS
RAPID CTY ARPT PTSUNNY   67  41  38 N10       30.25F
PIERRE         MOSUNNY   71  46  40 NW21      30.17F
CUSTER         CLOUDY    55  45  68 E10       30.30S
ELLSWORTH AFB  MOSUNNY   65  40  39 N5        30.24F
PHILIP         MOSUNNY   71  44  37 W10       30.21F
PINE RIDGE     CLOUDY    62  49  62 NW7       30.27F
WINNER         FAIR      74  49  41 W13G20    30.20F
$$

SDZ004>011-016>023-039-040-252100-
NORTHEAST SOUTH DAKOTA

CITY           SKY/WX    TMP DP  RH WIND       PRES   REMARKS
ABERDEEN       CLOUDY    66  50  56 NW10      30.14F
WATERTOWN      PTSUNNY   67  51  56 W12G20    30.13S
BROOKINGS      SUNNY     68  53  58 NW20G25   30.14
$$

SDZ017-020-022-023-036>040-048>070-252100-
SOUTHEAST SOUTH DAKOTA

CITY           SKY/WX    TMP DP  RH WIND       PRES   REMARKS
SIOUX FALLS    MOSUNNY   73  55  53 W10G18    30.15S
HURON          MOSUNNY   74  49  41 NW9       30.14F
CHAMBERLAIN    SUNNY     75  49  39 W14G21    30.18S
MITCHELL       SUNNY     73  51  46 NW13      30.15F
YANKTON        SUNNY     73  52  46 NW12      30.15F
$$

ABBREVIATIONS USED IN REMARKS
   TC - TEMPERATURE IN CELSIUS
  WCI - WIND CHILL INDEX
   HX - HEAT INDEX
  VSB - VISIBILITY





USA.gov is the U.S. government's official web portal to all federal, state and local government web resources and services.